Home   Weather   Brumunddal   Past weeks

Flag for Norway Past Weather in Brumunddal, Norway — Yesterday and Last 2 Weeks

Now
44 °F

Quite cool.


Feels Like: 44 °F
Forecast: 24 / 50 °F
Wind: 2 mph from East

Location: Lillehammer-Saetherengen

Current Time: Apr 29, 2017 at 9:53:38 pm

Latest Report: Apr 29, 2017 at 9:00 pm


Visibility: N/A

Pressure: 30.16 "Hg

Humidity: 32%

Dew Point: 16 °F

Location of BrumunddalLocation

Past Weather in Brumunddal — Graph

°F

Brumunddal Temperature Yesterday

Maximum temperature yesterday: 42 °F (at 4:00 pm)
Minimum temperature yesterday: 29 °F (at 6:00 am)
Average temperature yesterday: 37 °F

High & Low Weather Summary for the Past Weeks

 TemperatureHumidityPressure
High55 °F (Apr 20, 5:00 pm)99% (Apr 17, 6:00 am)30.55 "Hg (Apr 17, 6:00 am)
Low21 °F (Apr 18, 7:00 am)24% (Apr 23, 4:00 pm)29.38 "Hg (Apr 24, 6:00 pm)
Average36 °F60%29.92 "Hg
* Reported Apr 14 7:00 pm — Apr 29 7:00 pm, Brumunddal, Weather by CustomWeather, © 2017

Note: Actual official high and low records may vary slightly from our data, if they occured in-between our weather recording intervals... More about our weather records

Advertising

Brumunddal Weather History for the Previous 24 Hours

Scroll right to see more
 ConditionsComfort  
Time TempWeatherWind HumidityBarometerVisibility
7:00 pm
Sat, Apr 29
48 °FCool.2 mph29%30.15 "HgN/A
6:00 pm49 °FCool.2 mph27%30.16 "HgN/A
5:00 pm48 °FCool.3 mph28%30.17 "HgN/A
4:00 pm48 °FCool.2 mph28%30.18 "HgN/A
3:00 pm47 °FCool.2 mph31%30.19 "HgN/A
2:00 pm46 °FCool.3 mph36%30.21 "HgN/A
1:00 pm44 °FQuite cool.3 mph39%30.22 "HgN/A
12:00 pm42 °FQuite cool.2 mph44%30.24 "HgN/A
11:00 am39 °FChilly.2 mph50%30.26 "HgN/A
10:00 am37 °FChilly.3 mph54%30.27 "HgN/A
9:00 am37 °FChilly.2 mph56%30.27 "HgN/A
8:00 am35 °FChilly.2 mph61%30.28 "HgN/A
7:00 am34 °FChilly.2 mph64%30.27 "HgN/A
6:00 am35 °FChilly.1 mph64%30.26 "HgN/A
5:00 am34 °FChilly.1 mph67%30.25 "HgN/A
4:00 am35 °FChilly.1 mph66%30.24 "HgN/A
3:00 am36 °FChilly.1 mph64%30.22 "HgN/A
2:00 am36 °FChilly.2 mph61%30.22 "HgN/A
1:00 am37 °FChilly.2 mph59%30.21 "HgN/A
12:00 am38 °FChilly.2 mph55%30.19 "HgN/A
11:00 pm
Fri, Apr 28
39 °FChilly.3 mph56%30.18 "HgN/A
10:00 pm40 °FChilly.2 mph54%30.16 "HgN/A
9:00 pm40 °FChilly.2 mph56%30.14 "HgN/A
Weather by CustomWeather, © 2017

See weather overviewHow to use our weather pages